Time,TemperatureF,DewpointF,PressureIn,WindDirection,WindDirectionDegrees,WindSpeedMPH,WindSpeedGustMPH,Humidity,HourlyPrecipIn,Conditions,Clouds,dailyrainin,SoftwareType,DateUTC
2013-08-30 00:00:00,72.5,69.7,29.97,NNE,26,2.0,3.0,91,0.00,,---,0.00,VWS V14.00,2013-08-30 04:00:00,
2013-08-30 00:01:00,72.5,69.7,29.97,NNE,26,4.0,4.0,91,0.00,,---,0.00,VWS V14.00,2013-08-30 04:01:00,
2013-08-30 00:06:00,72.5,69.7,29.97,NNE,28,3.0,5.0,91,0.00,,---,0.00,VWS V14.00,2013-08-30 04:06:00,
2013-08-30 00:11:00,72.4,69.6,29.97,NNE,17,5.0,6.0,91,0.00,,---,0.00,VWS V14.00,2013-08-30 04:11:00,
2013-08-30 00:16:00,72.3,69.5,29.97,NNE,16,3.0,6.0,91,0.00,,---,0.00,VWS V14.00,2013-08-30 04:16:00,
2013-08-30 00:21:00,72.2,69.8,29.97,NNE,28,3.0,6.0,92,0.00,,---,0.00,VWS V14.00,2013-08-30 04:21:00,
2013-08-30 00:26:00,72.1,69.7,29.97,NNE,12,3.0,6.0,92,0.00,,---,0.00,VWS V14.00,2013-08-30 04:26:00,
2013-08-30 00:31:00,72.0,69.6,29.97,North,6,0.0,5.0,92,0.00,,---,0.00,VWS V14.00,2013-08-30 04:31:00,
2013-08-30 00:36:00,71.9,69.4,29.97,North,6,0.0,5.0,92,0.00,,---,0.00,VWS V14.00,2013-08-30 04:36:00,
2013-08-30 00:41:00,71.7,69.3,29.97,North,6,0.0,5.0,92,0.00,,---,0.00,VWS V14.00,2013-08-30 04:41:00,
2013-08-30 00:46:00,71.5,69.1,29.97,North,6,0.0,5.0,92,0.00,,---,0.00,VWS V14.00,2013-08-30 04:46:00,
2013-08-30 00:51:00,71.4,69.0,29.97,North,6,0.0,5.0,92,0.00,,---,0.00,VWS V14.00,2013-08-30 04:51:00,
2013-08-30 00:56:00,71.4,69.3,29.97,North,6,0.0,5.0,93,0.00,,---,0.00,VWS V14.00,2013-08-30 04:56:00,
2013-08-30 01:01:00,71.3,69.2,29.97,North,6,0.0,0.0,93,0.00,,---,0.00,VWS V14.00,2013-08-30 05:01:00,
2013-08-30 01:06:00,71.2,69.1,29.98,North,6,0.0,0.0,93,0.00,,---,0.00,VWS V14.00,2013-08-30 05:06:00,
2013-08-30 01:11:00,71.2,69.1,29.99,North,6,0.0,0.0,93,0.00,,---,0.00,VWS V14.00,2013-08-30 05:11:00,
2013-08-30 01:16:00,71.1,69.0,29.99,North,6,0.0,0.0,93,0.00,,---,0.00,VWS V14.00,2013-08-30 05:16:00,
2013-08-30 01:21:00,71.0,68.9,29.98,North,6,0.0,0.0,93,0.00,,---,0.00,VWS V14.00,2013-08-30 05:21:00,
2013-08-30 01:26:00,70.8,68.7,29.98,North,6,0.0,0.0,93,0.00,,---,0.00,VWS V14.00,2013-08-30 05:26:00,
2013-08-30 01:31:00,70.7,68.6,29.98,North,6,0.0,0.0,93,0.00,,---,0.00,VWS V14.00,2013-08-30 05:31:00,
2013-08-30 01:36:00,70.5,68.4,29.98,North,6,0.0,0.0,93,0.00,,---,0.00,VWS V14.00,2013-08-30 05:36:00,
2013-08-30 01:41:00,70.4,68.3,29.98,North,6,0.0,0.0,93,0.00,,---,0.00,VWS V14.00,2013-08-30 05:41:00,
2013-08-30 01:46:00,70.2,68.4,29.98,North,6,0.0,0.0,94,0.00,,---,0.00,VWS V14.00,2013-08-30 05:46:00,
2013-08-30 01:51:00,70.1,68.3,29.98,North,6,0.0,0.0,94,0.00,,---,0.00,VWS V14.00,2013-08-30 05:51:00,
2013-08-30 01:56:00,70.0,68.2,29.98,North,6,0.0,0.0,94,0.00,,---,0.00,VWS V14.00,2013-08-30 05:56:00,
2013-08-30 02:01:00,69.9,68.1,29.97,North,6,4.0,6.0,94,0.00,,---,0.00,VWS V14.00,2013-08-30 06:01:00,
2013-08-30 02:06:00,69.9,68.1,29.97,North,6,2.0,6.0,94,0.00,,---,0.00,VWS V14.00,2013-08-30 06:06:00,
2013-08-30 02:11:00,69.8,68.0,29.98,North,2,0.0,6.0,94,0.00,,---,0.00,VWS V14.00,2013-08-30 06:11:00,
2013-08-30 02:16:00,69.8,68.3,29.98,North,2,0.0,6.0,95,0.00,,---,0.00,VWS V14.00,2013-08-30 06:16:00,
2013-08-30 02:21:00,69.7,68.2,29.98,North,8,2.0,6.0,95,0.00,,---,0.00,VWS V14.00,2013-08-30 06:21:00,
2013-08-30 02:26:00,69.7,68.2,29.97,North,8,0.0,6.0,95,0.00,,---,0.00,VWS V14.00,2013-08-30 06:26:00,
2013-08-30 02:31:00,69.6,68.1,29.97,North,358,3.0,5.0,95,0.00,,---,0.00,VWS V14.00,2013-08-30 06:31:00,
2013-08-30 02:36:00,69.4,67.9,29.98,North,5,4.0,5.0,95,0.00,,---,0.00,VWS V14.00,2013-08-30 06:36:00,
2013-08-30 02:41:00,69.4,67.9,29.98,North,355,4.0,5.0,95,0.00,,---,0.00,VWS V14.00,2013-08-30 06:41:00,
2013-08-30 02:46:00,69.3,67.8,29.98,North,8,3.0,5.0,95,0.00,,---,0.00,VWS V14.00,2013-08-30 06:46:00,
2013-08-30 02:51:00,69.3,67.8,29.98,North,2,3.0,5.0,95,0.00,,---,0.00,VWS V14.00,2013-08-30 06:51:00,
2013-08-30 02:56:00,69.2,67.7,29.98,North,357,3.0,5.0,95,0.00,,---,0.00,VWS V14.00,2013-08-30 06:56:00,
2013-08-30 03:01:00,69.2,67.7,29.98,North,2,0.0,5.0,95,0.00,,---,0.00,VWS V14.00,2013-08-30 07:01:00,
2013-08-30 03:06:00,69.1,67.6,29.98,North,2,0.0,5.0,95,0.00,,---,0.00,VWS V14.00,2013-08-30 07:06:00,
2013-08-30 03:11:00,69.1,67.6,29.98,North,4,0.0,5.0,95,0.00,,---,0.00,VWS V14.00,2013-08-30 07:11:00,
2013-08-30 03:16:00,69.1,67.6,29.98,North,4,0.0,5.0,95,0.00,,---,0.00,VWS V14.00,2013-08-30 07:16:00,
2013-08-30 03:20:00,69.0,67.5,29.98,North,4,0.0,5.0,95,0.00,,---,0.00,VWS V14.00,2013-08-30 07:20:00,
2013-08-30 03:25:00,68.9,67.4,29.98,North,4,0.0,5.0,95,0.00,,---,0.00,VWS V14.00,2013-08-30 07:25:00,
2013-08-30 03:30:00,68.8,67.3,29.98,North,4,1.0,4.0,95,0.00,,---,0.00,VWS V14.00,2013-08-30 07:30:00,
2013-08-30 03:35:00,68.7,67.2,29.98,North,4,0.0,4.0,95,0.00,,---,0.00,VWS V14.00,2013-08-30 07:35:00,
2013-08-30 03:40:00,68.6,67.1,29.99,North,4,0.0,4.0,95,0.00,,---,0.00,VWS V14.00,2013-08-30 07:40:00,
2013-08-30 03:46:00,68.5,67.3,29.99,North,4,0.0,4.0,96,0.00,,---,0.00,VWS V14.00,2013-08-30 07:46:00,
2013-08-30 03:51:00,68.5,67.3,29.98,North,4,0.0,4.0,96,0.00,,---,0.00,VWS V14.00,2013-08-30 07:51:00,
2013-08-30 03:56:00,68.4,67.2,29.98,North,4,0.0,4.0,96,0.00,,---,0.00,VWS V14.00,2013-08-30 07:56:00,
2013-08-30 04:01:00,68.4,67.2,29.99,NNE,12,3.0,5.0,96,0.00,,---,0.00,VWS V14.00,2013-08-30 08:01:00,
2013-08-30 04:06:00,68.4,67.2,29.98,North,5,3.0,6.0,96,0.00,,---,0.00,VWS V14.00,2013-08-30 08:06:00,
2013-08-30 04:11:00,68.3,67.1,29.98,North,3,4.0,6.0,96,0.00,,---,0.00,VWS V14.00,2013-08-30 08:11:00,
2013-08-30 04:15:00,68.3,67.1,29.98,NNE,13,4.0,6.0,96,0.00,,---,0.00,VWS V14.00,2013-08-30 08:15:00,
2013-08-30 04:20:00,68.2,67.0,29.98,North,1,2.0,6.0,96,0.00,,---,0.00,VWS V14.00,2013-08-30 08:20:00,
2013-08-30 04:25:00,68.1,66.9,29.98,North,8,0.0,6.0,96,0.00,,---,0.00,VWS V14.00,2013-08-30 08:25:00,
2013-08-30 04:30:00,68.1,66.9,29.98,North,9,0.0,0.0,96,0.00,,---,0.00,VWS V14.00,2013-08-30 08:30:00,
2013-08-30 04:35:00,68.1,66.9,29.98,North,9,0.0,0.0,96,0.00,,---,0.00,VWS V14.00,2013-08-30 08:35:00,
2013-08-30 04:40:00,68.1,66.9,29.99,North,6,5.0,5.0,96,0.00,,---,0.00,VWS V14.00,2013-08-30 08:40:00,
2013-08-30 04:45:00,68.1,66.9,29.98,NNE,12,3.0,5.0,96,0.00,,---,0.00,VWS V14.00,2013-08-30 08:45:00,
2013-08-30 04:50:00,68.0,66.8,29.98,North,9,2.0,5.0,96,0.00,,---,0.00,VWS V14.00,2013-08-30 08:50:00,
2013-08-30 04:55:00,67.9,66.7,29.98,North,10,3.0,5.0,96,0.00,,---,0.00,VWS V14.00,2013-08-30 08:55:00,
2013-08-30 05:00:00,67.8,66.6,29.98,North,10,0.0,0.0,96,0.00,,---,0.00,VWS V14.00,2013-08-30 09:00:00,
2013-08-30 05:05:00,67.8,66.6,29.98,North,10,0.0,3.0,96,0.00,,---,0.00,VWS V14.00,2013-08-30 09:05:00,
2013-08-30 05:10:00,67.7,66.5,29.98,North,9,0.0,3.0,96,0.00,,---,0.00,VWS V14.00,2013-08-30 09:10:00,
2013-08-30 05:15:00,67.6,66.4,29.98,North,355,3.0,5.0,96,0.00,,---,0.00,VWS V14.00,2013-08-30 09:15:00,
2013-08-30 05:20:00,67.6,66.4,29.98,North,357,4.0,5.0,96,0.00,,---,0.00,VWS V14.00,2013-08-30 09:20:00,
2013-08-30 05:25:00,67.7,66.8,29.99,North,356,5.0,6.0,97,0.00,,---,0.00,VWS V14.00,2013-08-30 09:25:00,
2013-08-30 05:30:00,67.7,66.8,29.99,North,2,2.0,6.0,97,0.00,,---,0.00,VWS V14.00,2013-08-30 09:30:00,
2013-08-30 05:35:00,67.7,66.8,29.98,North,356,3.0,6.0,97,0.00,,---,0.00,VWS V14.00,2013-08-30 09:35:00,
2013-08-30 05:40:00,67.7,66.8,29.99,North,354,4.0,6.0,97,0.00,,---,0.00,VWS V14.00,2013-08-30 09:40:00,
2013-08-30 05:45:00,67.7,66.8,29.99,NNE,23,5.0,6.0,97,0.00,,---,0.00,VWS V14.00,2013-08-30 09:45:00,
2013-08-30 05:50:00,67.7,66.8,29.99,NNE,14,5.0,7.0,97,0.00,,---,0.00,VWS V14.00,2013-08-30 09:50:00,
2013-08-30 05:55:00,67.6,66.7,29.99,North,359,2.0,7.0,97,0.00,,---,0.00,VWS V14.00,2013-08-30 09:55:00,
2013-08-30 06:00:00,67.6,66.7,29.99,North,4,3.0,7.0,97,0.00,,---,0.00,VWS V14.00,2013-08-30 10:00:00,
2013-08-30 06:05:00,67.6,66.7,29.99,NNE,19,4.0,7.0,97,0.00,,---,0.00,VWS V14.00,2013-08-30 10:05:00,
2013-08-30 06:10:00,67.5,66.6,29.99,North,8,4.0,7.0,97,0.00,,---,0.00,VWS V14.00,2013-08-30 10:10:00,
2013-08-30 06:15:00,67.5,66.6,29.99,North,358,3.0,7.0,97,0.00,,---,0.00,VWS V14.00,2013-08-30 10:15:00,
2013-08-30 06:20:00,67.4,66.5,29.98,NNW,335,5.0,8.0,97,0.00,,---,0.00,VWS V14.00,2013-08-30 10:20:00,
2013-08-30 06:25:00,67.3,66.4,29.99,NNE,13,4.0,8.0,97,0.00,,---,0.00,VWS V14.00,2013-08-30 10:25:00,
2013-08-30 06:30:00,67.2,66.3,29.99,North,11,3.0,5.0,97,0.00,,---,0.00,VWS V14.00,2013-08-30 10:30:00,
2013-08-30 06:35:00,67.2,66.3,29.99,NNE,24,5.0,7.0,97,0.00,,---,0.00,VWS V14.00,2013-08-30 10:35:00,
2013-08-30 06:40:00,67.2,66.3,29.99,North,4,7.0,7.0,97,0.00,,---,0.00,VWS V14.00,2013-08-30 10:40:00,
2013-08-30 06:45:00,67.1,66.2,29.99,North,357,3.0,8.0,97,0.00,,---,0.00,VWS V14.00,2013-08-30 10:45:00,
2013-08-30 06:50:00,67.1,66.2,29.99,NNE,12,4.0,8.0,97,0.00,,---,0.00,VWS V14.00,2013-08-30 10:50:00,
2013-08-30 06:55:00,67.0,66.1,29.99,North,8,4.0,8.0,97,0.00,,---,0.00,VWS V14.00,2013-08-30 10:55:00,
2013-08-30 07:00:00,67.0,66.1,29.99,NNE,15,4.0,7.0,97,0.00,,---,0.00,VWS V14.00,2013-08-30 11:00:00,
2013-08-30 07:05:00,67.0,66.1,30.00,NNE,14,3.0,7.0,97,0.00,,---,0.00,VWS V14.00,2013-08-30 11:05:00,
2013-08-30 07:10:00,67.0,66.1,30.00,NNE,22,2.0,9.0,97,0.00,,---,0.00,VWS V14.00,2013-08-30 11:10:00,
2013-08-30 07:15:00,67.0,66.1,30.00,NNE,29,2.0,9.0,97,0.00,,---,0.00,VWS V14.00,2013-08-30 11:15:00,
2013-08-30 07:20:00,67.0,66.1,30.00,NNE,19,9.0,9.0,97,0.00,,---,0.00,VWS V14.00,2013-08-30 11:20:00,
2013-08-30 07:25:00,67.1,66.2,30.01,North,11,5.0,11.0,97,0.00,,---,0.00,VWS V14.00,2013-08-30 11:25:00,
2013-08-30 07:30:00,67.1,66.2,30.01,North,8,5.0,9.0,97,0.00,,---,0.00,VWS V14.00,2013-08-30 11:30:00,
2013-08-30 07:35:00,67.2,66.3,30.01,NNE,18,6.0,10.0,97,0.00,,---,0.00,VWS V14.00,2013-08-30 11:35:00,
2013-08-30 07:40:00,67.2,66.3,30.02,North,2,5.0,11.0,97,0.00,,---,0.00,VWS V14.00,2013-08-30 11:40:00,
2013-08-30 07:45:00,67.2,66.3,30.01,North,6,5.0,11.0,97,0.00,,---,0.00,VWS V14.00,2013-08-30 11:45:00,
2013-08-30 07:50:00,67.3,66.4,30.02,NNE,31,3.0,11.0,97,0.00,,---,0.00,VWS V14.00,2013-08-30 11:50:00,
2013-08-30 07:55:00,67.6,66.7,30.02,NNE,12,3.0,11.0,97,0.00,,---,0.00,VWS V14.00,2013-08-30 11:55:00,
2013-08-30 08:00:00,67.7,66.8,30.02,North,8,6.0,8.0,97,0.00,,---,0.00,VWS V14.00,2013-08-30 12:00:00,
2013-08-30 08:05:00,67.8,67.2,30.02,North,4,5.0,8.0,98,0.00,,---,0.00,VWS V14.00,2013-08-30 12:05:00,
2013-08-30 08:10:00,68.0,67.4,30.03,NNE,16,8.0,9.0,98,0.00,,---,0.00,VWS V14.00,2013-08-30 12:10:00,
2013-08-30 08:15:00,68.2,67.3,30.02,NNE,14,6.0,9.0,97,0.00,,---,0.00,VWS V14.00,2013-08-30 12:15:00,
2013-08-30 08:20:00,68.3,67.4,30.02,North,6,4.0,10.0,97,0.00,,---,0.00,VWS V14.00,2013-08-30 12:20:00,
2013-08-30 08:25:00,68.4,67.5,30.02,North,356,6.0,11.0,97,0.00,,---,0.00,VWS V14.00,2013-08-30 12:25:00,
2013-08-30 08:30:00,68.5,67.6,30.02,NNE,18,5.0,10.0,97,0.00,,---,0.00,VWS V14.00,2013-08-30 12:30:00,
2013-08-30 08:35:00,68.7,67.8,30.02,North,1,5.0,10.0,97,0.00,,---,0.00,VWS V14.00,2013-08-30 12:35:00,
2013-08-30 08:40:00,68.9,68.0,30.02,North,9,4.0,10.0,97,0.00,,---,0.00,VWS V14.00,2013-08-30 12:40:00,
2013-08-30 08:45:00,69.1,68.2,30.03,NNE,26,6.0,10.0,97,0.00,,---,0.00,VWS V14.00,2013-08-30 12:45:00,
2013-08-30 08:50:00,69.1,68.2,30.03,North,358,3.0,10.0,97,0.00,,---,0.00,VWS V14.00,2013-08-30 12:50:00,
2013-08-30 08:55:00,69.4,68.5,30.03,NNE,30,9.0,10.0,97,0.00,,---,0.00,VWS V14.00,2013-08-30 12:55:00,
2013-08-30 09:00:00,69.5,68.6,30.03,NNE,28,8.0,11.0,97,0.00,,---,0.00,VWS V14.00,2013-08-30 13:00:00,
2013-08-30 09:05:00,69.7,68.8,30.03,North,10,5.0,11.0,97,0.00,,---,0.00,VWS V14.00,2013-08-30 13:05:00,
2013-08-30 09:10:00,69.8,68.9,30.03,NE,37,9.0,11.0,97,0.00,,---,0.00,VWS V14.00,2013-08-30 13:10:00,
2013-08-30 09:15:00,69.9,69.0,30.03,NNE,15,8.0,11.0,97,0.00,,---,0.00,VWS V14.00,2013-08-30 13:15:00,
2013-08-30 09:20:00,70.1,68.9,30.04,NNE,25,4.0,12.0,96,0.00,,---,0.00,VWS V14.00,2013-08-30 13:20:00,
2013-08-30 09:25:00,70.3,69.1,30.04,North,2,5.0,12.0,96,0.00,,---,0.00,VWS V14.00,2013-08-30 13:25:00,
2013-08-30 09:30:00,70.8,69.6,30.04,North,357,3.0,8.0,96,0.00,,---,0.00,VWS V14.00,2013-08-30 13:30:00,
2013-08-30 09:35:00,71.1,69.6,30.04,North,5,7.0,11.0,95,0.00,,---,0.00,VWS V14.00,2013-08-30 13:35:00,
2013-08-30 09:40:00,71.1,69.3,30.03,North,0,9.0,12.0,94,0.00,,---,0.00,VWS V14.00,2013-08-30 13:40:00,
2013-08-30 09:45:00,71.2,69.4,30.03,NNE,26,6.0,12.0,94,0.00,,---,0.00,VWS V14.00,2013-08-30 13:45:00,
2013-08-30 09:50:00,71.5,69.4,30.04,NNE,32,8.0,12.0,93,0.00,,---,0.00,VWS V14.00,2013-08-30 13:50:00,
2013-08-30 09:55:00,71.9,69.8,30.04,NNE,16,6.0,12.0,93,0.00,,---,0.00,VWS V14.00,2013-08-30 13:55:00,
2013-08-30 10:00:00,72.1,69.7,30.03,NNE,15,8.0,12.0,92,0.00,,---,0.00,VWS V14.00,2013-08-30 14:00:00,
2013-08-30 10:05:00,72.6,69.8,30.03,North,8,8.0,14.0,91,0.00,,---,0.00,VWS V14.00,2013-08-30 14:05:00,
2013-08-30 10:10:00,72.8,70.0,30.03,NNE,32,12.0,14.0,91,0.00,,---,0.00,VWS V14.00,2013-08-30 14:10:00,
2013-08-30 10:15:00,73.0,69.6,30.03,North,11,6.0,14.0,89,0.00,,---,0.00,VWS V14.00,2013-08-30 14:15:00,
2013-08-30 10:20:00,73.3,69.9,30.03,NNE,25,5.0,14.0,89,0.00,,---,0.00,VWS V14.00,2013-08-30 14:20:00,
2013-08-30 10:25:00,73.8,70.0,30.03,NE,35,8.0,14.0,88,0.00,,---,0.00,VWS V14.00,2013-08-30 14:25:00,
2013-08-30 10:30:00,74.6,70.8,30.03,NNE,28,4.0,9.0,88,0.00,,---,0.00,VWS V14.00,2013-08-30 14:30:00,
2013-08-30 10:35:00,75.1,70.6,30.03,North,4,9.0,10.0,86,0.00,,---,0.00,VWS V14.00,2013-08-30 14:35:00,
2013-08-30 10:40:00,75.1,70.3,30.03,NNW,348,7.0,13.0,85,0.00,,---,0.00,VWS V14.00,2013-08-30 14:40:00,
2013-08-30 10:45:00,75.3,70.1,30.03,North,358,7.0,13.0,84,0.00,,---,0.00,VWS V14.00,2013-08-30 14:45:00,
2013-08-30 10:50:00,75.5,70.7,30.03,North,352,10.0,13.0,85,0.00,,---,0.00,VWS V14.00,2013-08-30 14:50:00,
2013-08-30 10:55:00,75.7,70.5,30.04,North,0,11.0,13.0,84,0.00,,---,0.00,VWS V14.00,2013-08-30 14:55:00,
2013-08-30 11:00:00,76.1,70.9,30.03,NNW,330,7.0,15.0,84,0.00,,---,0.00,VWS V14.00,2013-08-30 15:00:00,
2013-08-30 11:05:00,76.4,71.2,30.03,NE,52,6.0,15.0,84,0.00,,---,0.00,VWS V14.00,2013-08-30 15:05:00,
2013-08-30 11:10:00,76.8,71.2,30.03,NNE,27,1.0,15.0,83,0.00,,---,0.00,VWS V14.00,2013-08-30 15:10:00,
2013-08-30 11:15:00,77.1,70.8,30.03,North,6,6.0,15.0,81,0.00,,---,0.00,VWS V14.00,2013-08-30 15:15:00,
2013-08-30 11:20:00,77.2,71.3,30.03,NNE,17,8.0,15.0,82,0.00,,---,0.00,VWS V14.00,2013-08-30 15:20:00,
2013-08-30 11:25:00,77.3,71.4,30.03,NNE,26,4.0,15.0,82,0.00,,---,0.00,VWS V14.00,2013-08-30 15:25:00,
2013-08-30 11:30:00,77.6,71.3,30.03,NNE,25,7.0,9.0,81,0.00,,---,0.00,VWS V14.00,2013-08-30 15:30:00,
2013-08-30 11:35:00,78.0,71.7,30.03,North,356,1.0,9.0,81,0.00,,---,0.00,VWS V14.00,2013-08-30 15:35:00,
2013-08-30 11:40:00,78.3,71.6,30.03,NNE,15,5.0,9.0,80,0.00,,---,0.00,VWS V14.00,2013-08-30 15:40:00,
2013-08-30 11:45:00,78.7,72.0,30.03,NNE,17,2.0,9.0,80,0.00,,---,0.00,VWS V14.00,2013-08-30 15:45:00,
2013-08-30 11:50:00,79.1,72.0,30.03,NE,44,7.0,9.0,79,0.00,,---,0.00,VWS V14.00,2013-08-30 15:50:00,
2013-08-30 11:55:00,79.5,72.0,30.03,NE,35,5.0,9.0,78,0.00,,---,0.00,VWS V14.00,2013-08-30 15:55:00,
2013-08-30 12:00:00,79.5,72.0,30.03,North,5,3.0,5.0,78,0.00,,---,0.00,VWS V14.00,2013-08-30 16:00:00,
2013-08-30 12:05:00,79.3,71.8,30.03,NNW,340,0.0,6.0,78,0.00,,---,0.00,VWS V14.00,2013-08-30 16:05:00,
2013-08-30 12:10:00,79.8,72.3,30.03,NE,35,3.0,7.0,78,0.00,,---,0.00,VWS V14.00,2013-08-30 16:10:00,
2013-08-30 12:15:00,80.5,72.2,30.03,ESE,104,9.0,9.0,76,0.00,,---,0.00,VWS V14.00,2013-08-30 16:15:00,
2013-08-30 12:20:00,81.2,71.7,30.02,NE,52,3.0,9.0,73,0.00,,---,0.00,VWS V14.00,2013-08-30 16:20:00,
2013-08-30 12:25:00,81.5,72.8,30.02,ENE,65,5.0,9.0,75,0.00,,---,0.00,VWS V14.00,2013-08-30 16:25:00,
2013-08-30 12:30:00,82.5,73.0,30.02,East,95,2.0,8.0,73,0.00,,---,0.00,VWS V14.00,2013-08-30 16:30:00,
2013-08-30 12:35:00,83.0,73.1,30.02,East,79,4.0,9.0,72,0.00,,---,0.00,VWS V14.00,2013-08-30 16:35:00,
2013-08-30 12:40:00,82.7,71.9,30.02,ENE,66,2.0,9.0,70,0.00,,---,0.00,VWS V14.00,2013-08-30 16:40:00,
2013-08-30 12:45:00,82.7,71.9,30.02,SE,127,1.0,9.0,70,0.00,,---,0.00,VWS V14.00,2013-08-30 16:45:00,
2013-08-30 12:50:00,82.3,72.0,30.02,NE,40,4.0,10.0,71,0.00,,---,0.00,VWS V14.00,2013-08-30 16:50:00,
2013-08-30 12:55:00,82.0,72.5,30.02,East,99,2.0,10.0,73,0.00,,---,0.00,VWS V14.00,2013-08-30 16:55:00,
2013-08-30 13:00:00,81.8,71.9,30.01,East,85,1.0,3.0,72,0.00,,---,0.00,VWS V14.00,2013-08-30 17:00:00,
2013-08-30 13:05:00,81.7,72.2,30.01,NE,44,1.0,7.0,73,0.00,,---,0.00,VWS V14.00,2013-08-30 17:05:00,
2013-08-30 13:10:00,81.5,72.0,30.01,NE,52,2.0,7.0,73,0.00,,---,0.00,VWS V14.00,2013-08-30 17:10:00,
2013-08-30 13:15:00,81.3,72.2,30.01,ESE,106,1.0,7.0,74,0.00,,---,0.00,VWS V14.00,2013-08-30 17:15:00,
2013-08-30 13:20:00,81.3,73.0,30.01,ESE,104,3.0,8.0,76,0.00,,---,0.00,VWS V14.00,2013-08-30 17:20:00,
2013-08-30 13:25:00,82.2,73.9,30.01,SE,135,1.0,8.0,76,0.00,,---,0.00,VWS V14.00,2013-08-30 17:25:00,
2013-08-30 13:30:00,83.0,74.3,30.00,ESE,112,1.0,7.0,75,0.00,,---,0.00,VWS V14.00,2013-08-30 17:30:00,
2013-08-30 13:35:00,83.1,73.6,30.00,ESE,104,1.0,7.0,73,0.00,,---,0.00,VWS V14.00,2013-08-30 17:35:00,
2013-08-30 13:40:00,83.1,74.0,30.00,NE,45,7.0,9.0,74,0.00,,---,0.00,VWS V14.00,2013-08-30 17:40:00,
2013-08-30 13:45:00,82.7,73.2,30.00,SE,139,4.0,10.0,73,0.00,,---,0.00,VWS V14.00,2013-08-30 17:45:00,
2013-08-30 13:50:00,82.6,73.1,30.00,SE,132,9.0,10.0,73,0.00,,---,0.00,VWS V14.00,2013-08-30 17:50:00,
2013-08-30 13:55:00,82.8,74.1,30.00,SE,129,7.0,13.0,75,0.00,,---,0.00,VWS V14.00,2013-08-30 17:55:00,
2013-08-30 14:00:00,82.8,72.4,30.00,SE,135,11.0,11.0,71,0.00,,---,0.00,VWS V14.00,2013-08-30 18:00:00,
2013-08-30 14:05:00,82.4,73.3,30.00,ESE,119,5.0,12.0,74,0.00,,---,0.00,VWS V14.00,2013-08-30 18:05:00,
2013-08-30 14:10:00,83.0,73.5,30.00,ESE,118,6.0,12.0,73,0.00,,---,0.00,VWS V14.00,2013-08-30 18:10:00,
2013-08-30 14:15:00,82.9,72.9,30.00,SE,145,6.0,12.0,72,0.00,,---,0.00,VWS V14.00,2013-08-30 18:15:00,
2013-08-30 14:20:00,82.7,73.6,29.99,ESE,122,6.0,12.0,74,0.00,,---,0.00,VWS V14.00,2013-08-30 18:20:00,
2013-08-30 14:25:00,82.7,73.6,29.99,ESE,106,5.0,12.0,74,0.00,,---,0.00,VWS V14.00,2013-08-30 18:25:00,
2013-08-30 14:30:00,82.3,72.4,29.99,SSE,158,4.0,10.0,72,0.00,,---,0.00,VWS V14.00,2013-08-30 18:30:00,
2013-08-30 14:35:00,81.9,72.4,29.99,East,93,8.0,10.0,73,0.00,,---,0.00,VWS V14.00,2013-08-30 18:35:00,
2013-08-30 14:40:00,82.4,72.5,29.99,SE,137,6.0,10.0,72,0.00,,---,0.00,VWS V14.00,2013-08-30 18:40:00,
2013-08-30 14:45:00,82.1,71.3,29.99,SSE,165,7.0,12.0,70,0.00,,---,0.00,VWS V14.00,2013-08-30 18:45:00,
2013-08-30 14:50:00,82.1,72.2,29.98,ESE,122,10.0,13.0,72,0.00,,---,0.00,VWS V14.00,2013-08-30 18:50:00,
2013-08-30 14:55:00,82.1,72.2,29.98,SE,142,6.0,13.0,72,0.00,,---,0.00,VWS V14.00,2013-08-30 18:55:00,
2013-08-30 15:00:00,82.7,72.8,29.98,ESE,110,4.0,8.0,72,0.00,,---,0.00,VWS V14.00,2013-08-30 19:00:00,
2013-08-30 15:05:00,83.2,73.2,29.98,SE,143,8.0,11.0,72,0.00,,---,0.00,VWS V14.00,2013-08-30 19:05:00,
2013-08-30 15:10:00,82.9,72.1,29.98,SE,144,6.0,11.0,70,0.00,,---,0.00,VWS V14.00,2013-08-30 19:10:00,
2013-08-30 15:15:00,82.1,73.4,29.98,East,81,8.0,11.0,75,0.00,,---,0.00,VWS V14.00,2013-08-30 19:15:00,
2013-08-30 15:20:00,82.4,72.5,29.98,ESE,106,4.0,11.0,72,0.00,,---,0.00,VWS V14.00,2013-08-30 19:20:00,
2013-08-30 15:25:00,82.9,73.8,29.98,ESE,106,5.0,11.0,74,0.00,,---,0.00,VWS V14.00,2013-08-30 19:25:00,
2013-08-30 15:30:00,82.2,72.3,29.97,SE,125,9.0,9.0,72,0.00,,---,0.00,VWS V14.00,2013-08-30 19:30:00,
2013-08-30 15:35:00,82.5,73.8,29.98,SE,136,9.0,11.0,75,0.00,,---,0.00,VWS V14.00,2013-08-30 19:35:00,
2013-08-30 15:40:00,82.9,73.4,29.97,SE,129,6.0,12.0,73,0.00,,---,0.00,VWS V14.00,2013-08-30 19:40:00,
2013-08-30 15:45:00,82.4,73.3,29.97,ESE,119,3.0,12.0,74,0.00,,---,0.00,VWS V14.00,2013-08-30 19:45:00,
2013-08-30 15:49:00,82.7,73.2,29.98,ESE,106,4.0,12.0,73,0.00,,---,0.00,VWS V14.00,2013-08-30 19:49:00,
2013-08-30 15:54:00,82.9,73.4,29.98,SE,138,8.0,12.0,73,0.00,,---,0.00,VWS V14.00,2013-08-30 19:54:00,
2013-08-30 15:59:00,81.8,71.9,29.98,SE,146,7.0,9.0,72,0.00,,---,0.00,VWS V14.00,2013-08-30 19:59:00,
2013-08-30 16:04:00,82.2,73.1,29.98,East,98,4.0,10.0,74,0.00,,---,0.00,VWS V14.00,2013-08-30 20:04:00,
2013-08-30 16:09:00,82.3,72.4,29.98,ESE,110,4.0,10.0,72,0.00,,---,0.00,VWS V14.00,2013-08-30 20:09:00,
2013-08-30 16:14:00,82.2,71.9,29.98,ESE,120,9.0,13.0,71,0.00,,---,0.00,VWS V14.00,2013-08-30 20:14:00,
2013-08-30 16:19:00,81.9,72.4,29.98,East,100,6.0,13.0,73,0.00,,---,0.00,VWS V14.00,2013-08-30 20:19:00,
2013-08-30 16:24:00,82.3,72.4,29.98,East,96,7.0,13.0,72,0.00,,---,0.00,VWS V14.00,2013-08-30 20:24:00,
2013-08-30 16:29:00,82.3,71.1,29.98,SE,133,6.0,8.0,69,0.00,,---,0.00,VWS V14.00,2013-08-30 20:29:00,
2013-08-30 16:34:00,82.4,72.1,29.98,SE,125,5.0,8.0,71,0.00,,---,0.00,VWS V14.00,2013-08-30 20:34:00,
2013-08-30 16:39:00,82.4,71.6,29.97,ESE,108,5.0,9.0,70,0.00,,---,0.00,VWS V14.00,2013-08-30 20:39:00,
2013-08-30 16:44:00,82.4,71.6,29.97,SE,127,8.0,9.0,70,0.00,,---,0.00,VWS V14.00,2013-08-30 20:44:00,
2013-08-30 16:49:00,82.2,71.0,29.97,ESE,111,5.0,11.0,69,0.00,,---,0.00,VWS V14.00,2013-08-30 20:49:00,
2013-08-30 16:54:00,82.6,71.4,29.97,East,93,7.0,11.0,69,0.00,,---,0.00,VWS V14.00,2013-08-30 20:54:00,
2013-08-30 16:59:00,82.6,70.5,29.97,SE,129,5.0,10.0,67,0.00,,---,0.00,VWS V14.00,2013-08-30 20:59:00,
2013-08-30 17:04:00,82.3,70.7,29.97,ESE,103,7.0,11.0,68,0.00,,---,0.00,VWS V14.00,2013-08-30 21:04:00,
2013-08-30 17:09:00,82.5,72.6,29.98,SE,141,7.0,11.0,72,0.00,,---,0.00,VWS V14.00,2013-08-30 21:09:00,
2013-08-30 17:14:00,81.6,71.3,29.97,SE,136,7.0,12.0,71,0.00,,---,0.00,VWS V14.00,2013-08-30 21:14:00,
2013-08-30 17:19:00,81.4,71.1,29.97,SE,143,9.0,12.0,71,0.00,,---,0.00,VWS V14.00,2013-08-30 21:19:00,
2013-08-30 17:24:00,81.4,71.5,29.97,SE,132,9.0,12.0,72,0.00,,---,0.00,VWS V14.00,2013-08-30 21:24:00,
2013-08-30 17:29:00,81.3,72.6,29.97,ESE,116,6.0,9.0,75,0.00,,---,0.00,VWS V14.00,2013-08-30 21:29:00,
2013-08-30 17:34:00,81.6,72.5,29.97,ESE,116,6.0,9.0,74,0.00,,---,0.00,VWS V14.00,2013-08-30 21:34:00,
2013-08-30 17:39:00,81.3,72.2,29.97,SE,133,6.0,11.0,74,0.00,,---,0.00,VWS V14.00,2013-08-30 21:39:00,
2013-08-30 17:44:00,81.4,73.1,29.97,ESE,112,6.0,11.0,76,0.00,,---,0.00,VWS V14.00,2013-08-30 21:44:00,
2013-08-30 17:49:00,81.3,72.6,29.97,East,89,12.0,12.0,75,0.00,,---,0.00,VWS V14.00,2013-08-30 21:49:00,
2013-08-30 17:54:00,81.2,72.5,29.98,ESE,108,4.0,12.0,75,0.00,,---,0.00,VWS V14.00,2013-08-30 21:54:00,
2013-08-30 17:59:00,80.9,72.2,29.98,ESE,117,5.0,10.0,75,0.00,,---,0.00,VWS V14.00,2013-08-30 21:59:00,
2013-08-30 18:04:00,80.7,72.4,29.97,SE,125,9.0,10.0,76,0.00,,---,0.00,VWS V14.00,2013-08-30 22:04:00,
2013-08-30 18:09:00,80.1,72.2,29.97,SE,137,9.0,13.0,77,0.00,,---,0.00,VWS V14.00,2013-08-30 22:09:00,
2013-08-30 18:14:00,80.1,72.6,29.97,SE,130,7.0,13.0,78,0.00,,---,0.00,VWS V14.00,2013-08-30 22:14:00,
2013-08-30 18:19:00,79.9,72.8,29.97,SE,129,8.0,13.0,79,0.00,,---,0.00,VWS V14.00,2013-08-30 22:19:00,
2013-08-30 18:24:00,79.7,72.6,29.97,SE,137,9.0,13.0,79,0.00,,---,0.00,VWS V14.00,2013-08-30 22:24:00,
2013-08-30 18:29:00,79.4,73.1,29.97,SE,130,8.0,11.0,81,0.00,,---,0.00,VWS V14.00,2013-08-30 22:29:00,
2013-08-30 18:34:00,79.1,73.1,29.97,SE,131,8.0,11.0,82,0.00,,---,0.00,VWS V14.00,2013-08-30 22:34:00,
2013-08-30 18:39:00,79.0,73.4,29.97,ESE,121,5.0,11.0,83,0.00,,---,0.00,VWS V14.00,2013-08-30 22:39:00,
2013-08-30 18:44:00,78.9,73.3,29.97,East,89,5.0,11.0,83,0.00,,---,0.00,VWS V14.00,2013-08-30 22:44:00,
2013-08-30 18:49:00,78.8,73.2,29.97,ESE,111,6.0,11.0,83,0.00,,---,0.00,VWS V14.00,2013-08-30 22:49:00,
2013-08-30 18:54:00,78.5,73.3,29.97,SE,136,6.0,11.0,84,0.00,,---,0.00,VWS V14.00,2013-08-30 22:54:00,
2013-08-30 18:59:00,78.4,73.2,29.97,ESE,117,6.0,8.0,84,0.00,,---,0.00,VWS V14.00,2013-08-30 22:59:00,
2013-08-30 19:04:00,78.3,73.4,29.97,ESE,109,5.0,10.0,85,0.00,,---,0.00,VWS V14.00,2013-08-30 23:04:00,
2013-08-30 19:09:00,78.0,73.5,29.97,SE,129,8.0,10.0,86,0.00,,---,0.00,VWS V14.00,2013-08-30 23:09:00,
2013-08-30 19:14:00,77.6,73.1,29.97,East,100,5.0,10.0,86,0.00,,---,0.00,VWS V14.00,2013-08-30 23:14:00,
2013-08-30 19:19:00,77.5,73.3,29.97,SE,126,4.0,10.0,87,0.00,,---,0.00,VWS V14.00,2013-08-30 23:19:00,
2013-08-30 19:24:00,77.2,73.4,29.97,ESE,118,3.0,10.0,88,0.00,,---,0.00,VWS V14.00,2013-08-30 23:24:00,
2013-08-30 19:29:00,76.8,73.0,29.97,SE,144,3.0,5.0,88,0.00,,---,0.00,VWS V14.00,2013-08-30 23:29:00,
2013-08-30 19:34:00,76.4,72.9,29.97,SE,141,5.0,7.0,89,0.00,,---,0.00,VWS V14.00,2013-08-30 23:34:00,
2013-08-30 19:39:00,76.2,73.1,29.97,SE,141,4.0,7.0,90,0.00,,---,0.00,VWS V14.00,2013-08-30 23:39:00,
2013-08-30 19:44:00,76.0,72.9,29.97,SE,140,3.0,7.0,90,0.00,,---,0.00,VWS V14.00,2013-08-30 23:44:00,
2013-08-30 19:49:00,75.8,72.7,29.97,SE,133,2.0,7.0,90,0.00,,---,0.00,VWS V14.00,2013-08-30 23:49:00,
2013-08-30 19:54:00,75.5,72.7,29.97,SE,134,0.0,7.0,91,0.00,,---,0.00,VWS V14.00,2013-08-30 23:54:00,
2013-08-30 19:59:00,75.3,72.5,29.98,SE,134,0.0,1.0,91,0.00,,---,0.00,VWS V14.00,2013-08-30 23:59:00,
2013-08-30 20:04:00,75.1,72.3,29.97,SE,134,1.0,3.0,91,0.00,,---,0.00,VWS V14.00,2013-08-31 00:04:00,
2013-08-30 20:09:00,75.0,72.2,29.98,SE,131,1.0,3.0,91,0.00,,---,0.00,VWS V14.00,2013-08-31 00:09:00,
2013-08-30 20:14:00,74.9,72.4,29.98,SE,131,0.0,3.0,92,0.00,,---,0.00,VWS V14.00,2013-08-31 00:14:00,
2013-08-30 20:19:00,74.8,72.3,29.98,SE,131,0.0,3.0,92,0.00,,---,0.00,VWS V14.00,2013-08-31 00:19:00,
2013-08-30 20:24:00,74.6,72.1,29.98,SE,131,0.0,3.0,92,0.00,,---,0.00,VWS V14.00,2013-08-31 00:24:00,
2013-08-30 20:29:00,74.6,72.1,29.99,SE,131,0.0,0.0,92,0.00,,---,0.00,VWS V14.00,2013-08-31 00:29:00,
2013-08-30 20:34:00,74.5,72.0,29.99,SE,131,0.0,0.0,92,0.00,,---,0.00,VWS V14.00,2013-08-31 00:34:00,
2013-08-30 20:39:00,74.4,71.9,29.99,SE,131,0.0,0.0,92,0.00,,---,0.00,VWS V14.00,2013-08-31 00:39:00,
2013-08-30 20:44:00,74.4,72.2,29.99,SE,131,0.0,0.0,93,0.00,,---,0.00,VWS V14.00,2013-08-31 00:44:00,
2013-08-30 20:49:00,74.4,72.2,29.99,SE,131,0.0,0.0,93,0.00,,---,0.00,VWS V14.00,2013-08-31 00:49:00,
2013-08-30 20:54:00,74.3,72.2,29.99,SE,131,0.0,0.0,93,0.00,,---,0.00,VWS V14.00,2013-08-31 00:54:00,
2013-08-30 20:59:00,74.1,71.9,29.99,SE,131,0.0,0.0,93,0.00,,---,0.00,VWS V14.00,2013-08-31 00:59:00,
2013-08-30 21:04:00,74.1,71.9,29.99,SE,131,0.0,0.0,93,0.00,,---,0.00,VWS V14.00,2013-08-31 01:04:00,
2013-08-30 21:09:00,74.1,71.9,29.99,SE,131,0.0,0.0,93,0.00,,---,0.00,VWS V14.00,2013-08-31 01:09:00,
2013-08-30 21:14:00,74.0,71.8,29.99,SE,131,0.0,0.0,93,0.00,,---,0.00,VWS V14.00,2013-08-31 01:14:00,
2013-08-30 21:19:00,74.2,72.4,29.99,SE,131,0.0,0.0,94,0.00,,---,0.00,VWS V14.00,2013-08-31 01:19:00,
2013-08-30 21:24:00,74.3,72.5,29.99,SE,131,0.0,0.0,94,0.00,,---,0.00,VWS V14.00,2013-08-31 01:24:00,
2013-08-30 21:29:00,74.3,72.5,29.99,SE,131,0.0,1.0,94,0.00,,---,0.00,VWS V14.00,2013-08-31 01:29:00,
2013-08-30 21:34:00,73.4,70.6,29.99,SE,131,0.0,1.0,91,0.00,,---,0.00,VWS V14.00,2013-08-31 01:34:00,
2013-08-30 21:39:00,72.6,70.5,29.99,SE,131,0.0,1.0,93,0.00,,---,0.00,VWS V14.00,2013-08-31 01:39:00,
2013-08-30 21:44:00,72.4,70.3,29.99,SE,131,0.0,1.0,93,0.00,,---,0.00,VWS V14.00,2013-08-31 01:44:00,
2013-08-30 21:49:00,72.4,70.6,29.99,SE,131,0.0,1.0,94,0.00,,---,0.00,VWS V14.00,2013-08-31 01:49:00,
2013-08-30 21:54:00,72.5,71.0,29.99,SE,131,0.0,1.0,95,0.00,,---,0.00,VWS V14.00,2013-08-31 01:54:00,
2013-08-30 21:59:00,72.7,71.2,29.99,SE,131,0.0,0.0,95,0.00,,---,0.00,VWS V14.00,2013-08-31 01:59:00,
2013-08-30 22:04:00,72.8,71.3,29.99,SE,131,0.0,0.0,95,0.00,,---,0.00,VWS V14.00,2013-08-31 02:04:00,
2013-08-30 22:09:00,73.0,71.5,29.99,SE,131,0.0,0.0,95,0.00,,---,0.00,VWS V14.00,2013-08-31 02:09:00,
2013-08-30 22:14:00,73.2,71.4,29.99,SE,131,0.0,0.0,94,0.00,,---,0.00,VWS V14.00,2013-08-31 02:14:00,
2013-08-30 22:19:00,73.0,71.2,29.99,SE,131,0.0,0.0,94,0.00,,---,0.00,VWS V14.00,2013-08-31 02:19:00,
2013-08-30 22:24:00,73.0,71.2,29.99,SE,131,0.0,0.0,94,0.00,,---,0.00,VWS V14.00,2013-08-31 02:24:00,
2013-08-30 22:29:00,73.0,71.2,29.99,SE,131,0.0,0.0,94,0.00,,---,0.00,VWS V14.00,2013-08-31 02:29:00,
2013-08-30 22:34:00,73.0,71.2,29.99,SE,131,0.0,0.0,94,0.00,,---,0.00,VWS V14.00,2013-08-31 02:34:00,
2013-08-30 22:39:00,73.0,71.2,29.99,SE,131,0.0,0.0,94,0.00,,---,0.00,VWS V14.00,2013-08-31 02:39:00,
2013-08-30 22:44:00,72.7,70.6,29.99,SE,131,0.0,0.0,93,0.00,,---,0.00,VWS V14.00,2013-08-31 02:44:00,
2013-08-30 22:49:00,72.4,70.6,29.99,SE,131,0.0,0.0,94,0.00,,---,0.00,VWS V14.00,2013-08-31 02:49:00,
2013-08-30 22:54:00,72.2,70.4,29.99,SE,131,0.0,0.0,94,0.00,,---,0.00,VWS V14.00,2013-08-31 02:54:00,
2013-08-30 22:59:00,71.5,69.4,29.99,SE,131,0.0,0.0,93,0.00,,---,0.00,VWS V14.00,2013-08-31 02:59:00,
2013-08-30 23:04:00,71.3,69.5,29.98,SE,131,0.0,0.0,94,0.00,,---,0.00,VWS V14.00,2013-08-31 03:04:00,
2013-08-30 23:09:00,71.3,69.8,29.98,SE,131,0.0,0.0,95,0.00,,---,0.00,VWS V14.00,2013-08-31 03:09:00,
2013-08-30 23:14:00,71.4,69.9,29.98,SE,131,0.0,0.0,95,0.00,,---,0.00,VWS V14.00,2013-08-31 03:14:00,
2013-08-30 23:19:00,71.5,70.0,29.98,SE,131,0.0,0.0,95,0.00,,---,0.00,VWS V14.00,2013-08-31 03:19:00,
2013-08-30 23:24:00,71.5,70.0,29.98,SE,131,0.0,0.0,95,0.00,,---,0.00,VWS V14.00,2013-08-31 03:24:00,
2013-08-30 23:29:00,71.1,69.3,29.98,SE,131,0.0,0.0,94,0.00,,---,0.00,VWS V14.00,2013-08-31 03:29:00,
2013-08-30 23:34:00,70.8,69.3,29.98,SE,131,0.0,0.0,95,0.00,,---,0.00,VWS V14.00,2013-08-31 03:34:00,
2013-08-30 23:39:00,70.8,69.3,29.98,SE,131,0.0,0.0,95,0.00,,---,0.00,VWS V14.00,2013-08-31 03:39:00,
2013-08-30 23:44:00,70.5,68.7,29.97,SE,131,0.0,0.0,94,0.00,,---,0.00,VWS V14.00,2013-08-31 03:44:00,
2013-08-30 23:49:00,70.2,68.4,29.97,SE,131,0.0,0.0,94,0.00,,---,0.00,VWS V14.00,2013-08-31 03:49:00,
2013-08-30 23:54:00,69.9,68.4,29.97,SE,131,0.0,0.0,95,0.00,,---,0.00,VWS V14.00,2013-08-31 03:54:00,
2013-08-30 23:59:00,70.2,68.7,29.97,SE,131,0.0,0.0,95,0.00,,---,0.00,VWS V14.00,2013-08-31 03:59:00,